This is the latest recevied weather packets stored in our database for station/object AE0NK. If no packets are shown the sender has not sent any weather packets the latest 1 day(s).
| Time | Temp. | Humidity | Pressure | Rain* | Wind** | Luminosity | Snow |
|---|---|---|---|---|---|---|---|
| 1778026995 | 13.33° C | 40% | 1009.2 hPa | 0 mm | 1.34 m/s, 282° | 26 W/m² | - |
| 1778026693 | 13.33° C | 44% | 1009.2 hPa | 0 mm | 0.45 m/s, 271° | 40 W/m² | - |
| 1778026391 | 13.89° C | 43% | 1009.2 hPa | 0 mm | 0.89 m/s, 330° | 42 W/m² | - |
| 1778026109 | 13.89° C | 42% | 1009 hPa | 0 mm | 0.45 m/s, 305° | 49 W/m² | - |
| 1778025807 | 13.89° C | 41% | 1009 hPa | 0 mm | 0.89 m/s, 343° | 47 W/m² | - |
| 1778025502 | 13.89° C | 40% | 1009 hPa | 0 mm | 0.89 m/s, 205° | 49 W/m² | - |
| 1778025200 | 13.89° C | 39% | 1009.1 hPa | 0 mm | 0.89 m/s, 221° | 54 W/m² | - |
| 1778024897 | 13.89° C | 39% | 1009 hPa | 0 mm | 0.89 m/s, 306° | 67 W/m² | - |
| 1778024595 | 14.44° C | 40% | 1008.9 hPa | 0 mm | 1.34 m/s, 273° | 79 W/m² | - |
| 1778024292 | 14.44° C | 40% | 1008.9 hPa | 0 mm | 1.34 m/s, 333° | 83 W/m² | - |
| 1778024010 | 14.44° C | 39% | 1009 hPa | 0 mm | 0.45 m/s, 269° | 81 W/m² | - |
| 1778023707 | 14.44° C | 39% | 1009 hPa | 0 mm | 0.89 m/s, 300° | 81 W/m² | - |
| 1778023405 | 14.44° C | 39% | 1008.9 hPa | 0 mm | 0.45 m/s, 307° | 90 W/m² | - |
| 1778023102 | 14.44° C | 38% | 1008.9 hPa | 0 mm | 1.34 m/s, 320° | 91 W/m² | - |
| 1778022801 | 15° C | 37% | 1008.8 hPa | 0 mm | 1.34 m/s, 312° | 98 W/m² | - |
| 1778022501 | 15° C | 35% | 1008.8 hPa | 0 mm | 0.89 m/s, 309° | 120 W/m² | - |
| 1778022198 | 15° C | 34% | 1008.9 hPa | 0 mm | 1.34 m/s, 302° | 146 W/m² | - |
| 1778021893 | 15° C | 38% | 1008.9 hPa | 0 mm | 1.34 m/s, 323° | 221 W/m² | - |
| 1778021592 | 15° C | 37% | 1008.7 hPa | 0 mm | 1.34 m/s, 283° | 278 W/m² | - |
| 1778021309 | 15° C | 38% | 1008.8 hPa | 0 mm | 0.89 m/s, 248° | 309 W/m² | - |
| 1778021007 | 15° C | 37% | 1009 hPa | 0 mm | 1.79 m/s, 292° | 327 W/m² | - |
| 1778020707 | 14.44° C | 36% | 1009 hPa | 0 mm | 1.34 m/s, 274° | 299 W/m² | - |
| 1778020405 | 15° C | 37% | 1008.9 hPa | 0 mm | 0.89 m/s, 313° | 213 W/m² | - |
| 1778020103 | 15° C | 37% | 1008.9 hPa | 0 mm | 0.45 m/s, 298° | 197 W/m² | - |
| 1778019801 | 15° C | 36% | 1009 hPa | 0 mm | 0.89 m/s, 317° | 181 W/m² | - |
* Rain latest hour (hover to see other rain measurements)
** Current wind speed in m/s (hover to see current wind gust speed)